Jilin-1 Linqqiao Yanzheng

operational
NORAD ID: 40958 Int'l Des: 2015-057 Owner: CGSTL Country: CN Constellation: jilin-1
LEOCIRCULARRETROGRADESSO

Jilin-1 Linqqiao Yanzhengについて

説明を読み込み中...

リアルタイム位置

3D地球を読み込み中...

次回通過

高度履歴

Altitude vs Time

uPlot chart will show altitude changes over time

軌道要素

1 40958U 15057A 26061.14533944 .00000461 00000-0 72866-4 0 9996
2 40958 97.6653 59.8522 0015498 259.7933 100.1530 14.76617321559513
Epoch: Mar 2, 2026 • Age: 29 hours

現在のステータス

高度 651.8 km
速度 7.53 km/s
衛星直下点 43.07°N, 19.55°E
打ち上げ日 Oct 7, 2015
運用期間 10.4 years
タイプ earth observation

技術仕様

分類 Payload
質量 50.00 kg
乾燥質量 50.00 kg
総質量 50.00 kg
長さ 0.60 m
直径 0.40 m
スパン 0.60 m
形状 Box
製造者 HARB/CIOMP
バスタイプ JL-1
フェーズステータス In Orbit
所有者/国 CGSTL/CN

大規模コンステレーション

Loading constellations...